FW6471 Weather Reports


Display with metric or nautical units.
time (UTC)temp
F
wind
direction
speed
MPH
gust
MPH
rain 1hr
in
rain 24hr
in
rain mn
in
humidity
%
barometer
mb
20260904154605 87 167 0.0 1.0 0.00 0.41 0.01 82 1017.6
20260904154104 87 164 1.0 3.0 0.00 0.41 0.01 81 1017.6
20260904153606 87 161 0.0 3.0 0.00 0.41 0.01 82 1017.7
20260904153105 87 199 0.0 1.0 0.00 0.41 0.01 82 1017.6
20260904152604 87 161 0.0 2.0 0.00 0.41 0.01 81 1017.5
20260904152105 88 147 1.0 3.0 0.00 0.41 0.01 83 1017.4
20260904151604 87 168 0.0 2.0 0.00 0.41 0.01 84 1017.3
20260904151104 87 165 1.0 2.0 0.00 0.41 0.01 83 1017.3
20260904150605 87 72 0.0 1.0 0.00 0.41 0.01 84 1017.2
20260904150108 87 172 0.0 3.0 0.00 0.41 0.01 84 1017.1
20260904145604 87 148 0.0 2.0 0.00 0.41 0.01 84 1017.1
20260904145105 87 165 0.0 2.0 0.00 0.41 0.01 85 1017.2
20260904144604 86 163 0.0 0.0 0.00 0.41 0.01 87 1017.2
20260904144104 85 163 0.0 2.0 0.00 0.41 0.01 87 1017.2
20260904143105 84 163 1.0 3.0 0.00 0.41 0.01 89 1017.2
20260904142604 83 202 1.0 3.0 0.00 0.41 0.01 90 1017.3
20260904142105 83 166 1.0 3.0 0.00 0.41 0.01 91 1017.3
20260904141605 82 167 0.0 3.0 0.00 0.41 0.01 93 1017.2
20260904141104 81 175 1.0 3.0 0.00 0.41 0.01 94 1017.2
20260904140605 81 175 1.0 5.0 0.00 0.41 0.01 95 1017.1
20260904140109 81 174 1.0 6.0 0.00 0.41 0.01 95 1017.0
20260904135604 80 160 2.0 7.0 0.00 0.41 0.01 96 1017.0
20260904134104 79 100 2.0 3.0 0.00 0.41 0.01 96 1016.9
20260904133104 79 195 1.0 3.0 0.00 0.41 0.01 96 1017.0
20260904132605 78 196 1.0 2.0 0.00 0.41 0.01 96 1017.1
20260904131604 78 196 1.0 2.0 0.00 0.41 0.01 96 1017.1
20260904131104 78 211 0.0 0.0 0.00 0.41 0.01 96 1017.1
20260904130604 77 211 0.0 1.0 0.00 0.41 0.01 96 1017.1
20260904130109 77 211 1.0 3.0 0.00 0.41 0.01 96 1017.0
20260904125605 77 211 1.0 2.0 0.00 0.41 0.01 96 1016.9
20260904125104 77 211 0.0 0.0 0.00 0.41 0.01 96 1016.8
20260904124604 77 211 0.0 1.0 0.00 0.41 0.01 96 1016.9
20260904124105 77 212 0.0 1.0 0.00 0.41 0.01 96 1016.8
20260904123604 77 212 0.0 1.0 0.00 0.41 0.01 96 1016.7
20260904123104 76 212 0.0 2.0 0.01 0.41 0.01 96 1016.6
20260904122604 76 212 0.0 2.0 0.01 0.41 0.01 96 1016.6
20260904122105 76 215 1.0 2.0 0.01 0.41 0.01 96 1016.6
20260904121605 75 159 1.0 3.0 0.01 0.41 0.01 96 1016.5
20260904121104 75 159 0.0 1.0 0.01 0.41 0.01 96 1016.5
20260904120604 75 159 0.0 0.0 0.01 0.41 0.01 96 1016.5
20260904120109 75 159 0.0 0.0 0.01 0.41 0.01 96 1016.5
20260904115604 75 159 0.0 0.0 0.01 0.41 0.01 96 1016.4
20260904115104 75 159 0.0 0.0 0.01 0.41 0.01 95 1016.4
20260904114604 75 159 0.0 0.0 0.01 0.41 0.01 95 1016.4
20260904114105 75 159 0.0 0.0 0.01 0.41 0.01 95 1016.3
20260904113604 75 158 0.0 0.0 0.01 0.41 0.01 95 1016.3
20260904113104 75 170 0.0 0.0 0.00 0.40 0.00 95 1016.3
20260904112604 75 170 0.0 0.0 0.00 0.40 0.00 95 1016.1
20260904112104 75 170 0.0 0.0 0.00 0.40 0.00 95 1016.1
20260904111604 74 170 0.0 0.0 0.00 0.40 0.00 95 1016.0
20260904111104 74 170 0.0 0.0 0.00 0.40 0.00 95 1016.1
20260904110109 74 170 0.0 0.0 0.00 0.40 0.00 95 1015.8
20260904105604 74 170 0.0 0.0 0.00 0.40 0.00 95 1015.9
20260904105104 74 170 0.0 0.0 0.00 0.40 0.00 95 1015.9
20260904104604 74 170 0.0 0.0 0.00 0.40 0.00 95 1015.8
20260904103605 74 170 0.0 0.0 0.00 0.40 0.00 95 1015.7
20260904103104 75 170 0.0 0.0 0.00 0.40 0.00 95 1015.7
20260904102104 75 170 0.0 0.0 0.00 0.40 0.00 95 1015.6
20260904101104 75 170 0.0 0.0 0.00 0.40 0.00 95 1015.5
20260904100604 75 170 0.0 0.0 0.00 0.40 0.00 95 1015.5
20260904100108 75 170 0.0 0.0 0.00 0.40 0.00 95 1015.4
20260904095604 75 170 0.0 0.0 0.00 0.40 0.00 95 1015.4
20260904095105 75 170 0.0 0.0 0.00 0.40 0.00 95 1015.4
20260904094604 75 170 0.0 0.0 0.00 0.40 0.00 95 1015.3
20260904094104 75 170 0.0 0.0 0.00 0.40 0.00 95 1015.3
20260904093604 75 170 0.0 0.0 0.00 0.40 0.00 95 1015.3
20260904093104 75 170 0.0 0.0 0.00 0.40 0.00 95 1015.3
20260904092104 75 170 0.0 0.0 0.00 0.41 0.00 95 1015.2
20260904091604 75 170 0.0 0.0 0.00 0.41 0.00 95 1015.2
20260904091104 75 170 0.0 0.0 0.00 0.41 0.00 95 1015.3
20260904090604 75 170 0.0 0.0 0.00 0.41 0.00 95 1015.2
20260904090108 75 170 0.0 0.0 0.00 0.41 0.00 95 1015.1
20260904085604 75 170 0.0 0.0 0.00 0.41 0.00 95 1015.1
20260904085104 75 170 0.0 0.0 0.00 0.41 0.00 95 1015.2
20260904084604 75 170 0.0 0.0 0.00 0.41 0.00 95 1015.1
20260904084104 75 170 0.0 0.0 0.00 0.41 0.00 95 1015.0
20260904083604 75 170 0.0 0.0 0.00 0.41 0.00 95 1015.0
20260904083104 75 170 0.0 0.0 0.00 0.41 0.00 95 1015.1
20260904082604 75 170 0.0 0.0 0.00 0.41 0.00 95 1015.1
20260904082104 75 170 0.0 0.0 0.00 0.41 0.00 95 1015.0
20260904081604 75 170 0.0 0.0 0.00 0.41 0.00 95 1015.1
20260904081104 75 170 0.0 0.0 0.00 0.41 0.00 95 1015.2
20260904080108 75 170 0.0 0.0 0.00 0.41 0.00 95 1015.4
20260904075604 75 170 0.0 0.0 0.00 0.41 0.00 95 1015.3
20260904075104 75 170 0.0 0.0 0.00 0.41 0.00 95 1015.3
20260904074604 75 170 0.0 0.0 0.00 0.41 0.00 95 1015.2
20260904074104 75 170 0.0 0.0 0.00 0.41 0.00 95 1015.2
20260904073604 75 170 0.0 0.0 0.00 0.41 0.00 95 1015.1
20260904073104 75 170 0.0 0.0 0.00 0.41 0.00 95 1015.1
20260904072604 75 170 0.0 0.0 0.00 0.41 0.00 95 1015.0
20260904072104 75 170 0.0 0.0 0.00 0.41 0.00 95 1015.0
20260904071604 75 170 0.0 0.0 0.00 0.41 0.00 95 1015.0
20260904070604 75 170 0.0 0.0 0.00 0.41 0.00 95 1015.1
20260904070107 75 170 0.0 0.0 0.00 0.41 0.00 95 1014.9
20260904065604 75 170 0.0 0.0 0.00 0.41 0.00 95 1015.0
20260904065104 75 170 0.0 0.0 0.00 0.41 0.00 95 1015.1
20260904064603 75 170 0.0 0.0 0.00 0.41 0.00 95 1015.2
20260904064104 75 170 0.0 0.0 0.00 0.41 0.00 95 1015.1
20260904063604 75 170 0.0 0.0 0.00 0.41 0.00 95 1015.2
20260904063104 75 170 0.0 0.0 0.00 0.41 0.00 95 1015.2
20260904062604 75 170 0.0 0.0 0.00 0.41 0.00 95 1015.2
20260904061604 75 170 0.0 0.0 0.00 0.41 0.00 95 1015.3
20260904061103 75 170 0.0 0.0 0.00 0.41 0.00 95 1015.4
20260904060604 75 170 0.0 0.0 0.00 0.41 0.00 95 1015.4
20260904060108 75 170 0.0 0.0 0.00 0.41 0.00 95 1015.5
20260904055604 75 170 0.0 0.0 0.00 0.41 0.00 95 1015.7
20260904055104 75 170 0.0 0.0 0.00 0.41 0.00 95 1015.7
20260904054604 75 170 0.0 0.0 0.00 0.41 0.00 95 1015.7
20260904054103 75 170 0.0 0.0 0.00 0.41 0.00 95 1015.7
20260904053104 75 170 0.0 0.0 0.00 0.41 0.00 95 1015.7
20260904052603 75 170 0.0 0.0 0.00 0.41 0.00 95 1015.7
20260904052103 75 170 0.0 0.0 0.00 0.41 0.00 95 1015.7
20260904051604 75 170 0.0 0.0 0.00 0.41 0.00 95 1015.7
20260904050605 76 170 0.0 13.0 0.00 0.41 0.00 95 1015.9
20260904050110 76 170 0.0 0.0 0.00 0.41 0.00 95 1016.0
20260904045605 76 170 0.0 0.0 0.00 0.41 0.00 95 1015.9
20260904045106 76 170 0.0 0.0 0.00 0.41 0.00 95 1015.9
20260904044606 76 170 0.0 0.0 0.00 0.41 0.00 95 1015.8
20260904043606 76 170 0.0 0.0 0.00 0.41 0.00 95 1015.8
20260904043106 76 170 0.0 0.0 0.00 0.41 0.00 95 1015.9
20260904042105 76 170 0.0 0.0 0.00 0.41 0.00 95 1015.9
20260904041606 76 170 0.0 0.0 0.00 0.41 0.00 95 1016.0
20260904041106 76 170 0.0 0.0 0.00 0.41 0.00 95 1015.9
20260904040606 76 170 0.0 0.0 0.00 0.41 0.00 95 1015.9
20260904040110 76 170 0.0 0.0 0.00 0.41 0.00 95 1016.0
20260904035106 76 170 0.0 0.0 0.00 0.41 0.41 95 1016.0
20260904034606 76 170 0.0 0.0 0.00 0.41 0.41 95 1016.0
20260904034105 76 170 0.0 0.0 0.00 0.41 0.41 95 1016.0
20260904033606 76 170 0.0 0.0 0.00 0.41 0.41 95 1016.0
20260904033106 76 170 0.0 0.0 0.00 0.41 0.41 95 1016.0
20260904032105 76 170 0.0 0.0 0.00 0.41 0.41 95 1016.1
20260904031606 76 170 0.0 0.0 0.00 0.41 0.41 94 1016.1
20260904031106 76 170 0.0 0.0 0.00 0.41 0.41 95 1016.2
20260904030606 76 170 0.0 0.0 0.00 0.41 0.41 94 1016.1
20260904030110 76 170 0.0 0.0 0.00 0.41 0.41 94 1016.2
20260904025605 76 170 0.0 0.0 0.00 0.41 0.41 94 1016.2
20260904025106 76 170 0.0 0.0 0.00 0.41 0.41 94 1016.1
20260904024606 76 170 0.0 0.0 0.00 0.41 0.41 94 1016.1
20260904024106 76 170 0.0 0.0 0.00 0.41 0.41 94 1016.0
20260904023606 76 170 0.0 0.0 0.00 0.41 0.41 94 1016.0
20260904023106 76 170 0.0 0.0 0.00 0.41 0.41 94 1015.9
20260904022105 76 170 0.0 0.0 0.01 0.41 0.41 94 1015.8
20260904021606 76 170 0.0 0.0 0.01 0.41 0.41 94 1015.6
20260904021106 76 170 0.0 0.0 0.01 0.41 0.41 94 1015.6
20260904020605 76 170 0.0 0.0 0.01 0.41 0.41 94 1015.6
20260904020110 76 170 0.0 0.0 0.02 0.41 0.41 94 1015.6
20260904015606 76 170 0.0 0.0 0.02 0.41 0.41 94 1015.5
20260904015106 76 170 0.0 0.0 0.03 0.42 0.41 94 1015.5
20260904014605 76 170 0.0 0.0 0.04 0.42 0.41 94 1015.5
20260904014106 76 170 0.0 0.0 0.05 0.42 0.41 94 1015.6
20260904013606 76 170 0.0 0.0 0.06 0.42 0.41 94 1015.5
20260904012606 76 170 0.0 0.0 0.08 0.42 0.41 94 1015.4
20260904012106 76 170 0.0 0.0 0.08 0.41 0.40 94 1015.4
20260904011605 76 170 0.0 0.0 0.10 0.41 0.40 94 1015.4
20260904011106 76 170 0.0 0.0 0.11 0.41 0.40 94 1015.5
20260904010606 76 170 0.0 0.0 0.11 0.41 0.40 94 1015.5
20260904010109 76 170 0.0 0.0 0.10 0.40 0.39 94 1015.5
20260904004605 76 170 0.0 0.0 0.08 0.39 0.37 94 1015.4
20260904003606 76 170 0.0 0.0 0.07 0.38 0.35 94 1015.1
20260904003105 76 170 0.0 0.0 0.06 0.37 0.34 94 1015.1
20260904002106 76 170 0.0 0.0 0.04 0.36 0.32 94 1015.1
20260904001606 76 170 0.0 0.0 0.03 0.34 0.30 94 1015.1
20260904001105 76 170 0.0 0.0 0.03 0.33 0.29 94 1015.2
20260904000605 76 170 0.0 0.0 0.04 0.33 0.29 93 1015.2
20260904000110 76 170 0.0 0.0 0.05 0.34 0.29 93 1015.2
20260903235606 76 170 0.0 0.0 0.06 0.34 0.29 93 1015.2
20260903235105 76 170 0.0 0.0 0.06 0.34 0.29 93 1015.2
20260903234605 76 170 0.0 0.0 0.06 0.34 0.29 93 1015.2
20260903234105 76 170 0.0 0.0 0.06 0.35 0.29 93 1015.3
20260903233605 76 170 0.0 1.0 0.05 0.34 0.28 93 1015.4
20260903232106 76 182 0.0 1.0 0.05 0.34 0.28 92 1015.6
20260903231605 76 295 0.0 1.0 0.04 0.33 0.27 91 1015.3
20260903231105 77 173 0.0 3.0 0.03 0.32 0.26 91 1015.1
20260903230109 78 160 1.0 12.0 0.01 0.30 0.24 89 1015.5
20260903225606 79 161 1.0 10.0 0.00 0.29 0.23 89 1015.5
20260903225106 80 132 1.0 8.0 0.00 0.29 0.23 89 1015.4
20260903224605 81 155 5.0 13.0 0.00 0.29 0.23 88 1015.1
20260903224105 82 106 1.0 5.0 0.00 0.29 0.23 89 1014.5
20260903223605 83 334 0.0 0.0 0.00 0.29 0.23 89 1014.4
20260903223106 83 334 0.0 0.0 0.00 0.29 0.23 89 1014.5
20260903222105 83 334 0.0 0.0 0.00 0.29 0.23 89 1014.2
20260903221606 83 334 0.0 0.0 0.00 0.29 0.23 88 1014.2
20260903221105 84 334 0.0 0.0 0.00 0.29 0.23 89 1014.3
20260903220605 84 334 0.0 0.0 0.00 0.29 0.23 88 1014.0
20260903220110 84 334 0.0 0.0 0.00 0.29 0.23 89 1014.1
20260903215605 84 334 0.0 0.0 0.00 0.29 0.23 88 1014.0
20260903215105 84 334 0.0 2.0 0.00 0.29 0.23 88 1013.8
20260903214605 84 330 1.0 3.0 0.00 0.29 0.23 87 1013.8
20260903214105 84 294 0.0 1.0 0.00 0.29 0.23 88 1014.0
20260903213605 83 316 0.0 1.0 0.00 0.29 0.23 89 1014.1
20260903213105 82 313 0.0 0.0 0.00 0.29 0.23 90 1014.1
20260903212608 82 310 0.0 0.0 0.00 0.29 0.23 91 1013.9
20260903212106 82 310 0.0 0.0 0.01 0.29 0.23 91 1013.5
20260903211605 81 310 0.0 1.0 0.05 0.29 0.23 92 1013.4
20260903210605 80 308 0.0 0.0 0.09 0.29 0.23 92 1013.3
20260903205605 80 308 0.0 0.0 0.11 0.29 0.23 93 1013.7
20260903205105 79 308 0.0 0.0 0.11 0.29 0.23 93 1013.8
20260903204605 79 308 0.0 0.0 0.11 0.29 0.23 92 1013.9
20260903204105 79 308 0.0 0.0 0.11 0.29 0.23 92 1014.0
20260903203605 79 308 0.0 0.0 0.11 0.29 0.23 92 1014.0
20260903203105 79 308 0.0 0.0 0.11 0.29 0.23 91 1014.1
20260903202105 79 288 0.0 0.0 0.10 0.28 0.22 91 1014.1
20260903201605 79 203 0.0 0.0 0.06 0.24 0.18 91 1014.2
20260903200109 81 118 1.0 7.0 0.02 0.21 0.14 86 1014.8
20260903195607 85 138 2.0 9.0 0.00 0.20 0.12 81 1014.8
20260903195105 87 92 0.0 2.0 0.00 0.21 0.12 82 1014.5
20260903194605 87 29 0.0 2.0 0.00 0.21 0.12 83 1014.3
20260903194105 87 308 0.0 5.0 0.00 0.21 0.12 84 1014.3
20260903193605 87 327 0.0 5.0 0.00 0.21 0.12 84 1014.4
20260903193106 87 312 1.0 3.0 0.00 0.21 0.12 82 1014.6
20260903192605 87 317 1.0 5.0 0.00 0.21 0.12 83 1014.7
20260903191605 87 321 2.0 7.0 0.00 0.21 0.12 83 1014.8
20260903191105 88 319 2.0 9.0 0.00 0.21 0.12 82 1014.8
20260903190605 88 16 0.0 0.0 0.00 0.21 0.12 82 1014.8
20260903190109 88 303 0.0 2.0 0.00 0.21 0.12 82 1014.9
20260903185605 88 329 0.0 0.0 0.10 0.21 0.12 80 1015.0
20260903185105 87 30 0.0 1.0 0.11 0.21 0.12 83 1015.1
20260903184604 87 239 0.0 1.0 0.11 0.21 0.12 82 1015.0
20260903184105 86 311 0.0 1.0 0.11 0.21 0.12 86 1014.9
20260903183605 86 314 0.0 2.0 0.11 0.21 0.12 86 1014.8
20260903183105 86 325 0.0 0.0 0.11 0.21 0.12 88 1014.7
20260903182605 85 324 0.0 1.0 0.11 0.21 0.12 89 1014.8
20260903181605 84 327 0.0 0.0 0.11 0.21 0.12 91 1015.0
20260903181104 84 328 0.0 0.0 0.11 0.21 0.12 89 1015.1
20260903180605 84 327 0.0 0.0 0.11 0.21 0.12 89 1015.2
20260903175604 85 95 0.0 0.0 0.01 0.11 0.02 86 1015.4
20260903175105 85 48 1.0 3.0 0.00 0.10 0.01 84 1015.6
20260903174605 86 63 1.0 8.0 0.00 0.10 0.01 83 1015.6
20260903173605 87 102 0.0 1.0 0.00 0.10 0.01 82 1015.7
20260903173104 88 336 0.0 3.0 0.00 0.10 0.01 79 1015.8
20260903172604 88 66 0.0 1.0 0.00 0.10 0.01 81 1015.8
20260903172105 88 63 1.0 5.0 0.00 0.10 0.01 80 1015.8
20260903171604 87 41 0.0 2.0 0.00 0.10 0.01 82 1015.9
20260903170605 87 147 0.0 1.0 0.00 0.10 0.01 83 1016.1
20260903170109 87 24 0.0 1.0 0.00 0.10 0.01 83 1016.0
20260903165605 86 126 0.0 1.0 0.00 0.10 0.01 82 1016.0
20260903165104 86 155 0.0 1.0 0.00 0.10 0.01 82 1015.9
20260903164605 86 154 0.0 1.0 0.00 0.10 0.01 82 1016.0
20260903164105 87 163 0.0 1.0 0.00 0.10 0.01 82 1016.0
20260903163605 87 163 0.0 0.0 0.00 0.10 0.01 84 1016.1
20260903163104 86 163 0.0 3.0 0.00 0.10 0.01 80 1016.2
20260903162604 87 99 0.0 0.0 0.00 0.10 0.01 81 1016.2
20260903162105 87 99 0.0 3.0 0.00 0.10 0.01 81 1016.2
20260903161604 87 161 1.0 3.0 0.00 0.10 0.01 83 1016.2
20260903161105 87 161 1.0 5.0 0.00 0.10 0.01 82 1016.3
20260903160605 87 151 0.0 5.0 0.00 0.10 0.01 81 1016.3
20260903160108 87 177 1.0 3.0 0.00 0.10 0.01 84 1016.3
20260903155605 86 172 1.0 7.0 0.00 0.10 0.01 83 1016.4
20260903155104 86 138 0.0 1.0 0.00 0.10 0.01 85 1016.4